Tracking 19570 objects as of 21-Feb-2019
HD Live streaming from Space Station
objects crossing your sky now

A-1 (ASTERIX)

Track A-1 (ASTERIX) now!
10-day predictions
A-1 (ASTERIX) is classified as:


NORAD ID: 1778
Int'l Code: 1965-096A
Perigee: 530.2 km
Apogee: 1,651.5 km
Inclination: 34.3 °
Period: 106.9 minutes
Semi major axis: 7461 km
RCS: 0.3783 m2 (medium)
Launch date: November 26, 1965
Source: France (FR)
Launch site: HAMMA GUIRA SPACE TRACK RANGE (HGSTR)
aabbcc
Your satellite tracking list
Your tracking list is empty




NASA's NSSDC Master Catalog

Two Line Element Set (TLE):
1  1778U 65096A   19051.66380789 -.00000022  00000-0  66277-6 0  9991
2  1778  34.2540 171.2729 0751357  86.1909 282.4242 13.46892579603505
Source of the keplerian elements: AFSPC